• In Uzbekistan
  • List of Countries
  • For 7 days
  • Water Temperature
  • Weather Map
  • Weather Widgets
  • user-avatar
    Login

    Hourly Weather Bregenz

    Today, 28 February, Friday

    Time Temperature Precipitation Wind Pressure Humidity
    00:00 -9°C° 1.2 mm 6 mps 638 mmHg 95%
    01:00 -8°C° 0 mm 4 mps 639 mmHg 95%
    02:00 -8°C° 0.7 mm 4 mps 640 mmHg 95%
    03:00 -8°C° 0.7 mm 5 mps 641 mmHg 94%
    04:00 -10°C° 0.7 mm 5 mps 641 mmHg 93%
    05:00 -9°C° 0.3 mm 4 mps 642 mmHg 93%
    06:00 -9°C° 0.3 mm 3 mps 643 mmHg 93%
    07:00 -8°C° 0.3 mm 2 mps 644 mmHg 93%
    08:00 -7°C° 0.1 mm 2 mps 644 mmHg 88%
    09:00 -6°C° 0.1 mm 2 mps 645 mmHg 84%
    10:00 -5°C° 0.1 mm 2 mps 646 mmHg 79%
    11:00 -2°C° 0 mm 1 mps 646 mmHg 76%
    12:00 -1°C° 0 mm 1 mps 646 mmHg 72%
    13:00 0°C° 0 mm 1 mps 646 mmHg 68%
    14:00 0°C° 0 mm 1 mps 645 mmHg 69%
    15:00 0°C° 0 mm 1 mps 645 mmHg 69%
    16:00 0°C° 0 mm 1 mps 644 mmHg 70%
    17:00 -3°C° 0 mm 2 mps 644 mmHg 72%
    18:00 -4°C° 0 mm 2 mps 644 mmHg 74%
    19:00 -5°C° 0 mm 2 mps 643 mmHg 77%
    20:00 -5°C° 0 mm 2 mps 643 mmHg 75%
    21:00 -5°C° 0 mm 2 mps 643 mmHg 73%
    22:00 -5°C° 0 mm 2 mps 643 mmHg 71%
    23:00 -6°C° 0 mm 3 mps 642 mmHg 71%

    Tomorrow, 29 February, Saturday

    Time Temperature Precipitation Wind Pressure Humidity
    00:00 -6°C° 0 mm 3 mps 642 mmHg 70%
    01:00 -6°C° 0 mm 3 mps 642 mmHg 69%
    02:00 -6°C° 0 mm 3 mps 641 mmHg 69%
    03:00 -6°C° 0 mm 3 mps 640 mmHg 70%
    04:00 -6°C° 0 mm 3 mps 640 mmHg 70%
    05:00 -7°C° 0 mm 4 mps 640 mmHg 70%
    06:00 -7°C° 0 mm 4 mps 639 mmHg 71%
    07:00 -7°C° 0 mm 4 mps 639 mmHg 71%
    08:00 -5°C° 0 mm 4 mps 639 mmHg 70%
    09:00 -4°C° 0 mm 4 mps 638 mmHg 69%
    10:00 -3°C° 0 mm 4 mps 637 mmHg 68%
    11:00 -2°C° 0 mm 4 mps 637 mmHg 70%
    12:00 -1°C° 0 mm 4 mps 637 mmHg 72%
    13:00 0°C° 0 mm 4 mps 637 mmHg 74%
    14:00 0°C° 0 mm 4 mps 637 mmHg 74%
    15:00 0°C° 0 mm 4 mps 636 mmHg 74%
    16:00 0°C° 0 mm 3 mps 636 mmHg 75%
    17:00 -1°C° 0 mm 3 mps 636 mmHg 76%
    18:00 -2°C° 0 mm 3 mps 636 mmHg 78%
    19:00 -4°C° 0 mm 3 mps 636 mmHg 79%
    20:00 -4°C° 0.1 mm 3 mps 637 mmHg 80%
    21:00 -4°C° 0.1 mm 3 mps 637 mmHg 81%
    22:00 -3°C° 0.1 mm 2 mps 637 mmHg 83%
    23:00 -3°C° 0.9 mm 2 mps 637 mmHg 86%

    Day after tomorrow, 1 March, Sunday

    Time Temperature Precipitation Wind Pressure Humidity
    00:00 -2°C° 0.9 mm 1 mps 637 mmHg 90%
    01:00 -2°C° 0.9 mm 1 mps 637 mmHg 93%
    02:00 -2°C° 1.1 mm 1 mps 637 mmHg 95%
    03:00 -2°C° 1.1 mm 1 mps 637 mmHg 96%
    04:00 -2°C° 1.1 mm 1 mps 637 mmHg 97%
    05:00 -2°C° 0.7 mm 1 mps 637 mmHg 97%
    06:00 -1°C° 0.7 mm 1 mps 637 mmHg 97%
    07:00 -1°C° 0.7 mm 1 mps 637 mmHg 97%
    08:00 -1°C° 0.4 mm 1 mps 637 mmHg 96%
    09:00 0°C° 0.4 mm 1 mps 637 mmHg 94%
    10:00 +1°C° 0.4 mm 1 mps 637 mmHg 93%
    11:00 +1°C° 0.1 mm 1 mps 636 mmHg 92%
    12:00 +2°C° 0.1 mm 1 mps 636 mmHg 90%
    13:00 +2°C° 0.1 mm 1 mps 636 mmHg 89%
    14:00 +2°C° 0.1 mm 1 mps 636 mmHg 89%
    15:00 +2°C° 0.1 mm 1 mps 635 mmHg 89%
    16:00 +2°C° 0.1 mm 1 mps 634 mmHg 89%
    17:00 +1°C° 0 mm 1 mps 634 mmHg 89%
    18:00 -2°C° 0 mm 2 mps 634 mmHg 90%
    19:00 -3°C° 0 mm 2 mps 633 mmHg 90%
    20:00 -4°C° 0 mm 2 mps 633 mmHg 88%
    21:00 -4°C° 0 mm 2 mps 632 mmHg 86%
    22:00 -4°C° 0 mm 2 mps 632 mmHg 85%
    23:00 -4°C° 0.4 mm 2 mps 632 mmHg 87%

    2 March, Monday

    Time Temperature Precipitation Wind Pressure Humidity
    00:00 -4°C° 0.4 mm 2 mps 633 mmHg 89%
    01:00 -4°C° 0.4 mm 2 mps 633 mmHg 92%
    02:00 -4°C° 0.1 mm 2 mps 632 mmHg 91%
    03:00 -5°C° 0.1 mm 2 mps 632 mmHg 90%
    04:00 -5°C° 0.1 mm 2 mps 632 mmHg 89%
    05:00 -6°C° 0 mm 2 mps 632 mmHg 87%
    06:00 -6°C° 0 mm 2 mps 631 mmHg 85%
    07:00 -6°C° 0 mm 2 mps 631 mmHg 84%
    08:00 -4°C° 0 mm 2 mps 631 mmHg 83%
    09:00 -3°C° 0 mm 2 mps 631 mmHg 82%
    10:00 -1°C° 0 mm 2 mps 632 mmHg 81%
    11:00 +1°C° 0 mm 2 mps 632 mmHg 82%
    12:00 +3°C° 0 mm 1 mps 632 mmHg 82%
    13:00 +4°C° 0 mm 1 mps 631 mmHg 83%
    14:00 +3°C° 0.1 mm 1 mps 631 mmHg 85%
    15:00 +2°C° 0.1 mm 2 mps 631 mmHg 87%
    16:00 +1°C° 0.1 mm 2 mps 631 mmHg 89%
    17:00 -1°C° 0.9 mm 2 mps 631 mmHg 91%
    18:00 -2°C° 0.9 mm 2 mps 632 mmHg 93%
    19:00 -2°C° 0.9 mm 2 mps 632 mmHg 95%
    20:00 -3°C° 0.4 mm 2 mps 632 mmHg 95%
    21:00 -3°C° 0.4 mm 2 mps 633 mmHg 95%
    22:00 -2°C° 0.4 mm 1 mps 633 mmHg 94%
    23:00 -2°C° 0.1 mm 1 mps 633 mmHg 94%

    3 March, Tuesday

    Time Temperature Precipitation Wind Pressure Humidity
    00:00 -3°C° 0.1 mm 1 mps 633 mmHg 94%
    01:00 -3°C° 0.1 mm 1 mps 633 mmHg 93%
    02:00 -3°C° 0.1 mm 1 mps 633 mmHg 93%
    03:00 -4°C° 0.1 mm 1 mps 633 mmHg 93%
    04:00 -4°C° 0.1 mm 1 mps 633 mmHg 93%
    05:00 -4°C° 0.3 mm 1 mps 634 mmHg 94%
    06:00 -4°C° 0.3 mm 1 mps 634 mmHg 95%
    07:00 -4°C° 0.3 mm 1 mps 635 mmHg 96%
    08:00 -3°C° 0.4 mm 1 mps 635 mmHg 94%
    09:00 -3°C° 0.4 mm 1 mps 636 mmHg 92%
    10:00 -4°C° 0.4 mm 2 mps 636 mmHg 91%
    11:00 -3°C° 0.4 mm 2 mps 636 mmHg 89%
    12:00 -3°C° 0.4 mm 2 mps 637 mmHg 86%
    13:00 -2°C° 0.4 mm 3 mps 637 mmHg 84%
    14:00 -2°C° 0.2 mm 2 mps 637 mmHg 82%
    15:00 -2°C° 0.2 mm 2 mps 637 mmHg 81%
    16:00 -2°C° 0.2 mm 2 mps 637 mmHg 79%
    17:00 -4°C° 0.1 mm 2 mps 637 mmHg 82%
    18:00 -5°C° 0.1 mm 2 mps 637 mmHg 86%
    19:00 -4°C° 0.1 mm 1 mps 637 mmHg 89%
    20:00 -6°C° 0 mm 1 mps 638 mmHg 88%
    21:00 -6°C° 0 mm 1 mps 638 mmHg 87%
    22:00 -7°C° 0 mm 1 mps 638 mmHg 86%
    23:00 -7°C° 0 mm 1 mps 638 mmHg 85%

    4 March, Wednesday

    Time Temperature Precipitation Wind Pressure Humidity
    00:00 -9°C° 0 mm 2 mps 637 mmHg 84%
    01:00 -9°C° 0 mm 2 mps 637 mmHg 83%
    02:00 -9°C° 0 mm 2 mps 637 mmHg 82%
    03:00 -9°C° 0 mm 2 mps 636 mmHg 82%
    04:00 -9°C° 0 mm 2 mps 636 mmHg 81%
    05:00 -9°C° 0 mm 2 mps 636 mmHg 80%
    06:00 -9°C° 0 mm 2 mps 635 mmHg 78%
    07:00 -9°C° 0 mm 2 mps 635 mmHg 77%
    08:00 -7°C° 0 mm 2 mps 635 mmHg 75%
    09:00 -6°C° 0 mm 2 mps 635 mmHg 72%
    10:00 -2°C° 0 mm 1 mps 635 mmHg 69%
    11:00 -1°C° 0.3 mm 1 mps 635 mmHg 72%
    12:00 -1°C° 0.3 mm 1 mps 635 mmHg 75%
    13:00 0°C° 0.3 mm 1 mps 635 mmHg 79%
    14:00 -1°C° 1.1 mm 1 mps 635 mmHg 85%
    15:00 -1°C° 1.1 mm 1 mps 634 mmHg 91%
    16:00 -3°C° 1.1 mm 2 mps 634 mmHg 97%
    17:00 -3°C° 1.9 mm 2 mps 634 mmHg 97%
    18:00 -3°C° 1.9 mm 2 mps 634 mmHg 97%
    19:00 -3°C° 1.9 mm 2 mps 635 mmHg 97%
    20:00 -3°C° 1 mm 2 mps 635 mmHg 97%
    21:00 -3°C° 1 mm 2 mps 635 mmHg 96%
    22:00 -3°C° 1 mm 2 mps 635 mmHg 95%
    23:00 -3°C° 0.3 mm 2 mps 634 mmHg 94%
    Show more